Boscobel, WI

1:55 AM CDT on July 21, 2017 (GMT -0500)
Boscobel

Weather History for KOVS - October, 2011

Change the Weather History Date:

Friday, October 28, 2011

  Actual Average (KPDC) Record (KPDC)
Temperature  
Mean Temperature 42 °F -  
Max Temperature 59 °F 59 °F 78 °F (1966)
Min Temperature 26 °F 36 °F 18 °F (1969)
Degree Days  
Heating Degree Days 24    
Moisture  
Dew Point 28 °F    
Average Humidity 78    
Maximum Humidity 100    
Minimum Humidity 32    
Precipitation  
Precipitation 0.00 in - - ()
Sea Level Pressure  
Sea Level Pressure 30.11 in    
Wind  
Wind Speed 1 mph (WSW)    
Max Wind Speed 13 mph    
Max Gust Speed 20 mph    
Visibility 5 miles    
Events Fog    
Averages and records for this station are not official NWS values.
T = Trace of Precipitation, MM = Missing Value Source: NWS Daily Summary

Daily Weather History Graph

Daily Weather History Graph

Search for Another Location

Airport or City:

Trip Planner

Search our weather history database for the weather conditions in past years. The results will help you decide how hot, cold, wet, or windy it might be!

Date:

Astronomy

Oct. 28, 2011 Rise Set
Actual Time 7:32 AM CDT 6:00 PM CDT
Civil Twilight 7:02 AM CDT 6:29 PM CDT
Nautical Twilight 6:29 AM CDT 7:02 PM CDT
Astronomical Twilight 5:56 AM CDT 7:35 PM CDT
Moon 9:52 AM CDT (10/28) 7:18 PM CDT (10/28)
Length of Visible Light 11h 26m
Length of Day
10h 28m
Waxing Crescent, 5% of the Moon is Illuminated
Oct 28
Waxing Crescent
Nov 2
First Quarter
Nov 10
Full
Nov 18
Last Quarter
Nov 25
New

Hourly Weather History & Observations

Time (CDT) Temp. Windchill Dew Point Humidity Pressure Visibility Wind Dir Wind Speed Gust Speed Precip Events Conditions
12:53 AM 32.0 °F - 28.9 °F 88% 30.16 in 7.0 mi Calm Calm - N/A   Clear
1:53 AM 28.9 °F - 26.1 °F 89% 30.17 in 4.0 mi Calm Calm - N/A   Clear
2:29 AM 28.4 °F - 26.6 °F 93% 30.15 in 1.8 mi Calm Calm - N/A   Clear
2:32 AM 28.4 °F - 26.6 °F 93% 30.15 in 0.8 mi Calm Calm - N/A   Clear
2:45 AM 28.4 °F - 24.8 °F 86% 30.15 in 1.2 mi Calm Calm - N/A   Clear
2:49 AM 28.4 °F - 24.8 °F 86% 30.15 in 3.0 mi Calm Calm - N/A   Clear
3:00 AM 28.4 °F - 24.8 °F 86% 30.15 in 1.2 mi Calm Calm - N/A   Mostly Cloudy
3:02 AM 28.4 °F - 24.8 °F 86% 30.15 in 0.8 mi Calm Calm - N/A   Mist
3:46 AM 26.6 °F - 23.0 °F 86% 30.14 in 1.2 mi Calm Calm - N/A   Mostly Cloudy
3:50 AM 26.6 °F - 24.8 °F 93% 30.14 in 0.8 mi Calm Calm - N/A   Mist
3:53 AM 27.0 °F - 24.1 °F 89% 30.16 in 0.2 mi Calm Calm - N/A Fog Light Freezing Fog
5:53 AM 30.0 °F - 27.0 °F 88% 30.17 in 0.2 mi Calm Calm - N/A Fog Light Freezing Fog
6:12 AM 28.4 °F - 26.6 °F 93% 30.15 in 1.2 mi Calm Calm - N/A   Overcast
6:17 AM 28.4 °F - 26.6 °F 93% 30.15 in 3.0 mi Calm Calm - N/A   Overcast
6:44 AM 28.4 °F - 26.6 °F 93% 30.14 in 1.8 mi Calm Calm - N/A   Overcast
6:53 AM 28.0 °F - 25.0 °F 88% 30.17 in 1.5 mi Calm Calm - N/A   Overcast
6:58 AM 28.4 °F - 24.8 °F 86% 30.14 in 0.8 mi Calm Calm - N/A   Overcast
7:53 AM 28.0 °F - 27.0 °F 96% 30.17 in 0.2 mi Calm Calm - N/A Fog Light Freezing Fog
8:53 AM 30.0 °F - 28.0 °F 92% 30.17 in 0.2 mi Calm Calm - N/A Fog Light Freezing Fog
9:53 AM 33.1 °F - 30.9 °F 92% 30.16 in 0.2 mi Calm Calm - N/A Fog Fog
10:15 AM 33.8 °F 30.8 °F 32.0 °F 93% 30.12 in 1.2 mi ENE 3.5 mph - N/A   Overcast
10:26 AM 33.8 °F - 33.8 °F 100% 30.12 in 3.0 mi Calm Calm - N/A   Overcast
10:45 AM 37.4 °F 33.8 °F 35.6 °F 93% 30.11 in 10.0 mi ENE 4.6 mph - N/A   Mostly Cloudy
10:53 AM 37.9 °F - 34.0 °F 86% 30.13 in 10.0 mi Calm Calm - N/A   Scattered Clouds
12:53 PM 55.9 °F - 28.0 °F 34% 30.06 in 10.0 mi SSW 9.2 mph - N/A   Overcast
1:53 PM 57.9 °F - 28.0 °F 32% 30.04 in 10.0 mi SSW 12.7 mph 19.6 mph N/A   Overcast
2:53 PM 57.0 °F - 28.0 °F 33% 30.02 in 10.0 mi WSW 8.1 mph - N/A   Overcast
3:53 PM 54.0 °F - 30.0 °F 40% 30.01 in 10.0 mi NW 6.9 mph - 0.00 in   Overcast
4:53 PM 55.9 °F - 28.0 °F 34% 30.01 in 10.0 mi SW 10.4 mph - N/A   Clear
5:53 PM 52.0 °F - 28.0 °F 40% 30.02 in 10.0 mi WSW 4.6 mph - N/A   Partly Cloudy
6:53 PM 48.9 °F - 28.9 °F 46% 30.04 in 10.0 mi West 5.8 mph - N/A   Clear
7:53 PM 43.0 °F - 28.9 °F 58% 30.05 in 10.0 mi Calm Calm - N/A   Clear
8:53 PM 37.9 °F - 30.9 °F 76% 30.06 in 10.0 mi Calm Calm - N/A   Clear
9:53 PM 36.0 °F - 28.9 °F 76% 30.06 in 10.0 mi Calm Calm - N/A   Clear
10:53 PM 30.9 °F - 27.0 °F 85% 30.06 in 10.0 mi Calm Calm - N/A   Clear
11:53 PM 30.0 °F - 26.1 °F 85% 30.05 in 10.0 mi Calm Calm - N/A   Clear